{"data":{"norad_id":49204,"intl_designator":"2021-083U","name":"ONEWEB-0338","alt_names":[],"object_type":"PAYLOAD","status":"ACTIVE","operator":null,"country":"UK","launch_date":"2021-09-14","launch_site_code":"TYMSC","launch_vehicle":null,"mission":null,"orbit_class":"UNKNOWN","rcs_meters":null,"size_class":null,"mass_kg":null,"dimensions":null,"purposes":["comms"],"wikipedia_slug":null,"has_3d_model":false,"image_url":null,"decayed_at":null,"tle_current":{"epoch":"2026-05-25T02:04:58.693152Z","epoch_age_seconds":78272,"freshness":"FRESH","line1":"1 49204U 21083U   26145.08679043  .00000073  00000+0  14672-3 0  9990","line2":"2 49204  87.9163 279.0565 0001623  92.4351 267.6969 13.20773462233766","mean_motion":13.20773462,"eccentricity":0.0001623,"inclination_deg":87.9163,"raan_deg":279.0565,"arg_perigee_deg":92.4351,"mean_anomaly_deg":267.6969,"bstar":0.00014672,"rev_number":23376,"period_min":109.0270240454,"perigee_km":1180.5401076246,"apogee_km":1182.994052489,"semimajor_km":7559.9040800568,"source":"CELESTRAK","updated_at":"2026-05-25T13:38:22.512702Z"}}}